Howell, MI

11:04 PM EDT on March 25, 2017 (GMT -0400)
Livingston County

Weather History for KOZW - March, 2012

Change the Weather History Date:

Friday, March 2, 2012

  Actual Average Record
Temperature  
Mean Temperature 40 °F -  
Max Temperature 47 °F 36 °F 51 °F (1997)
Min Temperature 34 °F 21 °F 1 °F (2014)
Degree Days  
Heating Degree Days 24    
Moisture  
Dew Point 35 °F    
Average Humidity 86    
Maximum Humidity 97    
Minimum Humidity 67    
Precipitation  
Precipitation 0.00 in - - ()
Sea Level Pressure  
Sea Level Pressure 29.56 in    
Wind  
Wind Speed 7 mph (ESE)    
Max Wind Speed 21 mph    
Max Gust Speed 31 mph    
Visibility 7 miles    
Events Rain    
Averages and records for this station are not official NWS values.
T = Trace of Precipitation, MM = Missing Value Source: NWS Daily Summary

Daily Weather History Graph

Daily Weather History Graph

Search for Another Location

Airport or City:

Trip Planner

Search our weather history database for the weather conditions in past years. The results will help you decide how hot, cold, wet, or windy it might be!

Date:

Astronomy

Mar. 02, 2012 Rise Set
Actual Time 7:09 AM EST 6:27 PM EST
Civil Twilight 6:40 AM EST 6:55 PM EST
Nautical Twilight 6:08 AM EST 7:28 PM EST
Astronomical Twilight 5:35 AM EST 8:01 PM EST
Moon 12:32 PM EST (3/2) 3:04 AM EST (3/2)
Length of Visible Light 12h 14m
Length of Day
11h 18m
Waxing Gibbous, 66% of the Moon is Illuminated
Mar 2
Waxing Gibbous
Mar 8
Full
Mar 14
Last Quarter
Mar 22
New
Mar 30
First Quarter

Hourly Weather History & Observations

Time (EST) Temp. Windchill Dew Point Humidity Pressure Visibility Wind Dir Wind Speed Gust Speed Precip Events Conditions
12:14 AM 36.9 °F 34.3 °F 32.0 °F 83% 29.85 in 10.0 mi South 3.5 mph - N/A   Overcast
12:54 AM 36.9 °F 33.1 °F 32.2 °F 83% 29.85 in 10.0 mi South 4.6 mph - N/A   Overcast
1:15 AM 36.9 °F 34.3 °F 32.2 °F 83% 29.85 in 10.0 mi South 3.5 mph - N/A   Overcast
1:34 AM 36.7 °F - 32.2 °F 84% 29.84 in 7.0 mi Calm Calm - N/A   Overcast
1:54 AM 36.5 °F 33.9 °F 32.4 °F 85% 29.83 in 7.0 mi SE 3.5 mph - N/A   Overcast
2:15 AM 35.6 °F 32.8 °F 32.0 °F 87% 29.83 in 7.0 mi SE 3.5 mph - N/A   Mostly Cloudy
2:34 AM 34.7 °F 30.6 °F 32.0 °F 90% 29.83 in 7.0 mi SSE 4.6 mph - N/A   Mostly Cloudy
2:54 AM 35.1 °F 32.2 °F 32.0 °F 89% 29.83 in 7.0 mi SSE 3.5 mph - N/A   Scattered Clouds
3:34 AM 34.7 °F 31.8 °F 32.0 °F 90% 29.82 in 7.0 mi SE 3.5 mph - N/A   Mostly Cloudy
3:54 AM 35.1 °F 31.0 °F 32.4 °F 90% 29.81 in 7.0 mi SSE 4.6 mph - N/A   Overcast
4:15 AM 35.1 °F 31.0 °F 32.4 °F 90% 29.80 in 7.0 mi SE 4.6 mph - N/A   Overcast
4:34 AM 34.9 °F 30.8 °F 32.4 °F 91% 29.80 in 5.0 mi SE 4.6 mph - N/A   Mostly Cloudy
4:55 AM 34.7 °F 31.8 °F 32.2 °F 91% 29.79 in 7.0 mi SE 3.5 mph - N/A   Mostly Cloudy
5:14 AM 34.7 °F 31.8 °F 32.2 °F 91% 29.79 in 7.0 mi ESE 3.5 mph - N/A   Overcast
5:34 AM 34.7 °F 31.8 °F 32.2 °F 91% 29.79 in 7.0 mi ESE 3.5 mph - N/A   Overcast
5:55 AM 34.7 °F 30.6 °F 32.2 °F 91% 29.78 in 7.0 mi East 4.6 mph - N/A   Mostly Cloudy
6:14 AM 34.7 °F 30.6 °F 32.2 °F 91% 29.77 in 7.0 mi East 4.6 mph - N/A   Mostly Cloudy
6:35 AM 34.7 °F 29.6 °F 32.2 °F 91% 29.76 in 7.0 mi ESE 5.8 mph - N/A   Scattered Clouds
6:55 AM 34.7 °F 28.8 °F 32.0 °F 90% 29.75 in 7.0 mi ESE 6.9 mph - N/A   Scattered Clouds
7:14 AM 34.7 °F 27.5 °F 32.0 °F 90% 29.74 in 7.0 mi ESE 9.2 mph - N/A   Scattered Clouds
7:35 AM 34.9 °F 27.7 °F 32.0 °F 89% 29.72 in 7.0 mi ESE 9.2 mph - N/A   Mostly Cloudy
7:54 AM 35.1 °F 27.9 °F 32.0 °F 89% 29.73 in 7.0 mi ESE 9.2 mph - N/A   Mostly Cloudy
8:14 AM 36.5 °F 29.7 °F 32.4 °F 85% 29.73 in 7.0 mi ESE 9.2 mph - N/A   Mostly Cloudy
8:35 AM 37.0 °F 29.8 °F 32.2 °F 83% 29.73 in 7.0 mi ESE 10.4 mph - N/A   Overcast
8:54 AM 37.8 °F 29.8 °F 32.5 °F 81% 29.71 in 7.0 mi ESE 12.7 mph - N/A   Overcast
9:14 AM 37.9 °F 30.0 °F 32.4 °F 80% 29.71 in 7.0 mi ESE 12.7 mph 17.3 mph N/A   Mostly Cloudy
9:35 AM 38.7 °F 31.8 °F 32.9 °F 80% 29.69 in 10.0 mi ESE 10.4 mph - N/A   Overcast
9:54 AM 39.4 °F 33.2 °F 32.7 °F 77% 29.68 in 10.0 mi ESE 9.2 mph - N/A   Mostly Cloudy
10:14 AM 40.3 °F 33.9 °F 33.1 °F 75% 29.67 in 10.0 mi ESE 10.4 mph - N/A   Overcast
10:35 AM 41.0 °F 35.8 °F 33.3 °F 74% 29.67 in 10.0 mi ESE 8.1 mph 17.3 mph N/A   Scattered Clouds
10:54 AM 41.0 °F 35.8 °F 33.3 °F 74% 29.66 in 10.0 mi ESE 8.1 mph - N/A   Mostly Cloudy
11:15 AM 41.5 °F 36.4 °F 33.6 °F 73% 29.64 in 10.0 mi ESE 8.1 mph - N/A   Overcast
11:34 AM 41.9 °F 36.9 °F 33.8 °F 73% 29.63 in 7.0 mi East 8.1 mph - N/A   Overcast
11:54 AM 42.3 °F 37.3 °F 33.8 °F 72% 29.61 in 10.0 mi East 8.1 mph - N/A   Mostly Cloudy
12:15 PM 43.5 °F 37.9 °F 34.5 °F 71% 29.58 in 10.0 mi East 10.4 mph - N/A   Scattered Clouds
12:34 PM 43.9 °F 38.3 °F 34.3 °F 69% 29.56 in 10.0 mi East 10.4 mph - N/A   Mostly Cloudy
12:54 PM 44.6 °F 38.8 °F 34.7 °F 68% 29.53 in 10.0 mi ENE 11.5 mph - N/A   Mostly Cloudy
1:15 PM 44.8 °F 40.4 °F 34.5 °F 67% 29.50 in 10.0 mi East 8.1 mph - N/A   Overcast
1:34 PM 44.6 °F 38.4 °F 34.7 °F 68% 29.49 in 10.0 mi East 12.7 mph 17.3 mph N/A   Mostly Cloudy
1:55 PM 44.2 °F 37.6 °F 34.7 °F 69% 29.48 in 10.0 mi East 13.8 mph - N/A   Overcast
2:14 PM 44.2 °F 37.6 °F 34.7 °F 69% 29.47 in 10.0 mi East 13.8 mph - N/A   Overcast
2:34 PM 43.0 °F 37.2 °F 35.6 °F 75% 29.45 in 10.0 mi East 10.4 mph - N/A Rain Light Rain
2:55 PM 42.8 °F 38.0 °F 35.6 °F 76% 29.46 in 7.0 mi ESE 8.1 mph - N/A Rain Rain
3:34 PM 41.4 °F 35.2 °F 37.8 °F 87% 29.44 in 4.0 mi East 10.4 mph - N/A Rain Rain
3:55 PM 41.0 °F 33.9 °F 37.9 °F 89% 29.42 in 3.0 mi East 12.7 mph - N/A Rain Light Rain
4:14 PM 40.6 °F 34.8 °F 38.3 °F 91% 29.43 in 2.5 mi East 9.2 mph 17.3 mph N/A Rain Rain
4:35 PM 40.3 °F 33.0 °F 38.3 °F 93% 29.36 in 2.5 mi East 12.7 mph - N/A Rain Rain
4:54 PM 40.5 °F 33.2 °F 38.8 °F 94% 29.30 in 2.0 mi East 12.7 mph 24.2 mph N/A Rain Rain
5:14 PM 40.8 °F 31.7 °F 39.2 °F 94% 29.26 in 3.0 mi East 19.6 mph 26.5 mph N/A Rain Light Rain
5:35 PM 40.3 °F 33.4 °F 38.8 °F 95% 29.26 in 4.0 mi East 11.5 mph - N/A   Overcast
5:54 PM 40.5 °F 31.5 °F 39.2 °F 95% 29.23 in 7.0 mi East 18.4 mph 24.2 mph N/A   Overcast
6:14 PM 40.6 °F 33.0 °F 39.4 °F 95% 29.21 in 5.0 mi East 13.8 mph 21.9 mph N/A   Overcast
6:35 PM 41.0 °F 31.9 °F 39.7 °F 95% 29.18 in 5.0 mi ESE 19.6 mph 25.3 mph N/A   Overcast
6:54 PM 41.2 °F 32.1 °F 40.1 °F 96% 29.16 in 5.0 mi SE 19.6 mph 26.5 mph N/A   Overcast
7:14 PM 41.9 °F 32.8 °F 41.0 °F 97% 29.16 in 4.0 mi SE 20.7 mph 31.1 mph N/A   Overcast
7:35 PM 43.3 °F 35.0 °F 42.6 °F 97% 29.15 in 4.0 mi SE 19.6 mph 29.9 mph N/A   Overcast
7:54 PM 44.1 °F 36.5 °F 43.2 °F 97% 29.13 in 3.0 mi SE 17.3 mph 23.0 mph N/A   Overcast
8:15 PM 43.9 °F 35.4 °F 43.0 °F 97% 29.11 in 1.8 mi SE 20.7 mph 26.5 mph N/A   Overcast
8:34 PM 45.3 °F 39.3 °F 44.6 °F 97% 29.11 in 3.0 mi South 12.7 mph 26.5 mph N/A   Overcast
8:54 PM 45.9 °F 40.8 °F 45.1 °F 97% 29.11 in 5.0 mi South 10.4 mph - N/A   Overcast
9:14 PM 47.3 °F - 46.4 °F 97% 29.09 in 7.0 mi SSW 11.5 mph 18.4 mph N/A   Overcast
9:34 PM 47.7 °F - 45.9 °F 93% 29.09 in 7.0 mi SW 19.6 mph 27.6 mph N/A   Overcast
9:55 PM 46.0 °F 37.2 °F 40.5 °F 81% 29.11 in 10.0 mi SW 26.5 mph 44.9 mph N/A   Overcast
10:14 PM 43.9 °F 34.3 °F 37.8 °F 79% 29.12 in 10.0 mi SW 26.5 mph 41.4 mph N/A   Overcast
10:34 PM 41.9 °F 31.9 °F 36.7 °F 82% 29.14 in 10.0 mi WSW 25.3 mph 44.9 mph N/A   Overcast
10:55 PM 41.0 °F 31.1 °F 35.6 °F 81% 29.15 in 10.0 mi SW 23.0 mph 39.1 mph N/A   Overcast
11:14 PM 39.9 °F 28.6 °F 34.3 °F 80% 29.17 in 10.0 mi SW 28.8 mph 42.6 mph N/A   Overcast
11:34 PM 38.3 °F 26.6 °F 33.1 °F 81% 29.19 in 10.0 mi WSW 27.6 mph 41.4 mph N/A   Overcast
11:55 PM 37.2 °F 25.2 °F 32.0 °F 81% 29.19 in 10.0 mi WSW 27.6 mph 41.4 mph N/A   Overcast